Regional Weather Roundup
Issued by NWS

Home | Current Version | Previous Version | Graphics & Text | Print | Product List | Glossary On
Versions: 1 2 3 4 5 6 7 8 9 10 11 12 13 14 15 16 17 18 19 20 21 22 23 24 25 26 27 28 29 30 31 32 33 34 35 36 37 38 39 40 41 42 43 44 45 46 47 48 49 50
558
ASUS43 KDTX 120710
RWRMI
MICHIGAN HOURLY REGIONAL WEATHER ROUNDUP
NATIONAL WEATHER SERVICE DETROIT/PONTIAC MI
200 AM EST FRI FEB 12 2016

NOTE: "FAIR" INDICATES FEW OR NO CLOUDS BELOW 12,000 FEET WITH NO
SIGNIFICANT WEATHER AND/OR OBSTRUCTION TO VISIBILITY.

MIZ047>049-052>055-059>063-066>070-074>076-081>083-120800-
SOUTHEAST LOWER MICHIGAN

CITY           SKY/WX    TMP DP  RH WIND       PRES   REMARKS
ADRIAN         CLEAR     10   4  76 W5        30.21F WCI   2
ALMA           CLOUDY    15  10  80 SW5       30.14F WCI   8
ANN ARBOR      CLEAR      3   1  91 SW3       30.19F
BAD AXE        PTCLDY    10   3  76 SW8       30.12F WCI  -3
CARO           MOCLDY    -2  -4  92 CALM      30.14F
DETROIT CITY   CLEAR     15   7  70 W7        30.20F WCI   5
DETROIT        PTCLDY    13   6  74 SW7       30.21F WCI   3
FLINT          PTCLDY    11   3  70 S8        30.16F WCI  -1
GROSSE ILE     CLEAR     14   7  73 CALM      30.20F
HILLSDALE      CLEAR     11   4  75 CALM      30.16F
HOWELL         PTCLDY    11   8  87 SW5       30.15F WCI   3

CITY           SKY/WX    TMP DP  RH WIND       PRES   REMARKS
JACKSON        CLEAR     11   4  73 SW8       30.16F WCI  -1
LAMBERTVILLE   CLEAR     14   8  78 W5        30.22F WCI   6
LANSING        CLEAR     13   7  77 SW9       30.16F WCI   1
LAPEER         FAIR       6   3  87 SW3       30.15F
MASON          CLEAR     11   7  83 CALM      30.15F
MONROE         CLEAR     12   6  76 SW5       30.21F WCI   4
MT. CLEMENS    CLEAR     12   6  77 SW6       30.17F WCI   3
PONTIAC        CLEAR      9   5  84 SW5       30.15F WCI   1
PORT HOPE        N/A     13   4  67 SW8       30.09F WCI   2
PORT HURON     CLEAR      5   3  92 SW3       30.17F
TRI CITIES     CLOUDY    15   6  67 SW10      30.14F WCI   2
MIDLAND        CLOUDY    14   6  72 SW7       30.13F WCI   4
TROY           CLEAR     13   8  81 SW3       30.20F
SAGINAW HB     CLOUDY    12   9  85 S10       30.14F WCI  -1
$$
MIZ043>046-050>051-056>058-064>065-071>073-077>080-120800-
SOUTHWEST LOWER MICHIGAN

CITY           SKY/WX    TMP DP  RH WIND       PRES   REMARKS
BATTLE CREEK   CLEAR      9   3  77 SW6       30.17F WCI  -1
BENTON HARBOR  CLOUDY    14   5  67 CALM      30.20F
BIG RAPIDS     CLOUDY    15   8  73 SW5       30.09F WCI   7
COLDWATER      CLEAR      9   4  81 SW7       30.18F WCI  -2
FREMONT        CLOUDY    16   7  68 SW5       30.12F WCI   9
HOLLAND        CLOUDY    21   9  59 W13       30.17F WCI   9
GRAND RAPIDS   PTCLDY    15   8  73 SW10      30.15F WCI   2
IONIA          CLOUDY    15   9  76 SW10G16   30.14F WCI   2
KALAMAZOO      CLEAR      9   1  70 SW7       30.18F WCI  -2
LUDINGTON      CLOUDY    21   8  56 W14G20    30.11F WCI   8
MARSHALL       CLEAR     12   6  75 SW5       30.16F WCI   4
MOUNT PLEASANT CLOUDY    16   8  70 SW8       30.11F WCI   5
MUSKEGON       CLOUDY    23   9  55 W9        30.15F WCI  13
SOUTH HAVEN    MOCLDY    15   8  75 S6        30.19F WCI   6
$$
MIZ016>042-120800-
NORTHERN LOWER MICHIGAN

CITY           SKY/WX    TMP DP  RH WIND       PRES   REMARKS
ALPENA         MOCLDY    13   5  70 SW10      30.00F WCI   0
BEAVER ISLAND  CLOUDY    19   7  61 W16G29    29.99F WCI   4
BELLAIRE       CLOUDY    19  11  72 SW6       30.02F WCI  11
CADILLAC       CLOUDY    12   6  76 SW9       30.01F WCI  -1
CHARLEVOIX     CLOUDY    21  10  61 W21G30    30.02F WCI   6
FRANKFORT      CLOUDY    21   7  55 W14G23    30.07F WCI   8
GAYLORD        CLOUDY    14   7  73 SW16G23   29.95F WCI  -2
GRAYLING       CLOUDY    11   6  78 SW7       30.00F WCI   1
HARBOR SPRINGS CLOUDY    21   6  53 W13G22    29.97F WCI   8
HOUGHTON LAKE  CLOUDY    11   5  77 SW10      30.03F WCI  -3
MANISTEE       CLOUDY    21   5  49 W21       30.08F WCI   6
OSCODA         CLOUDY    13   5  70 SW13      30.06F WCI  -2
PELLSTON       CLOUDY    19   5  54 W17       29.97F WCI   4
ROGERS CITY    LGT SNOW  15  10  81 SW12      29.98F WCI   2
TRAVERSE CITY  CLOUDY    17   7  64 S6        30.03F WCI   9
$$
MIZ007>008-015-120800-
EASTERN UPPER MICHIGAN

CITY           SKY/WX    TMP DP  RH WIND       PRES   REMARKS
KINROSS        CLOUDY    14   3  62 W13       29.91F WCI   0
MACKINAC ISLAN CLOUDY    17   4  56 W17G26    29.95F WCI   2
NEWBERRY       MOCLDY    10   1  67 SW16      29.92F WCI  -7
S. S. MARIE    PTCLDY    15   0  51 W16G23    29.89F WCI  -1
MUNISING         N/A     12   2  64 SW8       29.98F WCI   0
$$
MIZ004>006-011>014-085-120800-
CENTRAL UPPER MICHIGAN

CITY           SKY/WX    TMP DP  RH WIND       PRES   REMARKS
MANISTIQUE     CLOUDY    13   0  54 W15G21    29.99F WCI  -2
ESCANABA       CLOUDY    16  -2  45 W12       30.03F WCI   3
MENOMINEE      CLOUDY    16  -2  45 W7        30.07F WCI   6
SAWYER-GWINN   PTCLDY     6  -1  72 W5        29.97S WCI  -3
$$
MIZ001>003-009>011-084-120800-
WESTERN UPPER MICHIGAN

CITY           SKY/WX    TMP DP  RH WIND       PRES   REMARKS
IRON MOUNTAIN  CLOUDY    12  -3  51 W7G16     30.00F WCI   1
HOUGHTON       LGT SNOW  12   4  70 NW20      29.96S WCI  -6
COPPER HARBOR    N/A     17  11  77 N26G32    29.96F WCI  -2
IRONWOOD       CLOUDY    10   3  72 W15       30.02F WCI  -6
$$

ABBREVIATIONS USED IN REMARKS
   TC - TEMPERATURE IN CELSIUS
  WCI - WIND CHILL INDEX
   HX - HEAT INDEX
  VSB - VISIBILITY





USA.gov is the U.S. government's official web portal to all federal, state and local government web resources and services.